When you browse on this site, cookies collect data to enhance your experience and personalize the content and advertising you see.
Visit our Privacy Policy to learn more. By continuing to use the site, you agree to this use of cookies and data.
  • In United Kingdom
  • List of Countries
  • For 7 days
  • Water Temperature
  • Satellite Maps
  • Weather Map
  • Weather Widgets
  • user-avatar
    Login

    Hourly Weather Reading

    Today, 18 July, Thursday

    Time Temperature Precipitation Wind Pressure Humidity
    00:00 +16°C° 0 mm 2 mps 754 mmHg 87%
    01:00 +16°C° 0 mm 2 mps 754 mmHg 89%
    02:00 +16°C° 0 mm 3 mps 754 mmHg 90%
    03:00 +15°C° 0 mm 4 mps 754 mmHg 91%
    04:00 +15°C° 0 mm 4 mps 753 mmHg 92%
    05:00 +15°C° 0 mm 4 mps 753 mmHg 93%
    06:00 +17°C° 0 mm 4 mps 753 mmHg 93%
    07:00 +17°C° 0.6 mm 3 mps 753 mmHg 93%
    08:00 +17°C° 0.6 mm 3 mps 753 mmHg 93%
    09:00 +18°C° 0.6 mm 2 mps 754 mmHg 92%
    10:00 +19°C° 0.2 mm 3 mps 754 mmHg 86%
    11:00 +20°C° 0.2 mm 3 mps 754 mmHg 79%
    12:00 +21°C° 0.2 mm 4 mps 754 mmHg 73%
    13:00 +22°C° 0.1 mm 4 mps 754 mmHg 69%
    14:00 +22°C° 0.1 mm 4 mps 754 mmHg 66%
    15:00 +22°C° 0.1 mm 4 mps 754 mmHg 62%
    16:00 +22°C° 0 mm 4 mps 754 mmHg 65%
    17:00 +21°C° 0 mm 4 mps 754 mmHg 68%
    18:00 +20°C° 0 mm 4 mps 754 mmHg 72%
    19:00 +19°C° 0 mm 4 mps 755 mmHg 76%
    20:00 +17°C° 0 mm 3 mps 755 mmHg 81%
    21:00 +14°C° 0 mm 3 mps 755 mmHg 85%
    22:00 +13°C° 0 mm 3 mps 755 mmHg 87%
    23:00 +13°C° 0 mm 3 mps 756 mmHg 89%

    Tomorrow, 19 July, Friday

    Time Temperature Precipitation Wind Pressure Humidity
    00:00 +13°C° 0 mm 2 mps 756 mmHg 90%
    01:00 +13°C° 0 mm 2 mps 756 mmHg 91%
    02:00 +12°C° 0 mm 2 mps 756 mmHg 92%
    03:00 +12°C° 0 mm 2 mps 756 mmHg 93%
    04:00 +13°C° 0 mm 2 mps 756 mmHg 91%
    05:00 +13°C° 0 mm 2 mps 756 mmHg 89%
    06:00 +13°C° 0 mm 3 mps 756 mmHg 87%
    07:00 +16°C° 0 mm 3 mps 756 mmHg 82%
    08:00 +17°C° 0 mm 4 mps 756 mmHg 77%
    09:00 +19°C° 0 mm 5 mps 756 mmHg 73%
    10:00 +19°C° 0.2 mm 5 mps 755 mmHg 75%
    11:00 +19°C° 0.2 mm 5 mps 755 mmHg 77%
    12:00 +17°C° 0.2 mm 5 mps 755 mmHg 80%
    13:00 +19°C° 0 mm 6 mps 755 mmHg 80%
    14:00 +18°C° 0 mm 7 mps 755 mmHg 80%
    15:00 +18°C° 0 mm 7 mps 754 mmHg 80%
    16:00 +18°C° 0 mm 7 mps 754 mmHg 83%
    17:00 +19°C° 0 mm 6 mps 754 mmHg 86%
    18:00 +19°C° 0 mm 6 mps 753 mmHg 89%
    19:00 +19°C° 0.3 mm 5 mps 753 mmHg 91%
    20:00 +17°C° 0.3 mm 5 mps 753 mmHg 93%
    21:00 +18°C° 0.3 mm 4 mps 753 mmHg 95%
    22:00 +18°C° 2.6 mm 4 mps 752 mmHg 95%
    23:00 +18°C° 2.6 mm 4 mps 752 mmHg 95%

    Day after tomorrow, 20 July, Saturday

    Time Temperature Precipitation Wind Pressure Humidity
    00:00 +18°C° 2.6 mm 4 mps 751 mmHg 96%
    01:00 +18°C° 0.3 mm 4 mps 751 mmHg 95%
    02:00 +18°C° 0.3 mm 4 mps 751 mmHg 95%
    03:00 +18°C° 0.3 mm 4 mps 751 mmHg 95%
    04:00 +18°C° 0.5 mm 4 mps 751 mmHg 95%
    05:00 +18°C° 0.5 mm 4 mps 751 mmHg 94%
    06:00 +18°C° 0.5 mm 4 mps 751 mmHg 94%
    07:00 +19°C° 0.2 mm 5 mps 751 mmHg 88%
    08:00 +20°C° 0.2 mm 5 mps 751 mmHg 82%
    09:00 +21°C° 0.2 mm 5 mps 752 mmHg 76%
    10:00 +21°C° 0.3 mm 6 mps 752 mmHg 74%
    11:00 +22°C° 0.3 mm 6 mps 752 mmHg 72%
    12:00 +22°C° 0.3 mm 6 mps 752 mmHg 70%
    13:00 +22°C° 0.5 mm 7 mps 752 mmHg 71%
    14:00 +22°C° 0.5 mm 7 mps 753 mmHg 72%
    15:00 +22°C° 0.5 mm 7 mps 753 mmHg 73%
    16:00 +22°C° 0.3 mm 6 mps 753 mmHg 75%
    17:00 +22°C° 0.3 mm 5 mps 754 mmHg 77%
    18:00 +21°C° 0.3 mm 4 mps 754 mmHg 79%
    19:00 +20°C° 0 mm 4 mps 755 mmHg 83%
    20:00 +18°C° 0 mm 4 mps 755 mmHg 87%
    21:00 +17°C° 0 mm 4 mps 756 mmHg 91%
    22:00 +15°C° 0 mm 4 mps 756 mmHg 93%
    23:00 +15°C° 0 mm 4 mps 756 mmHg 94%

    21 July, Sunday

    Time Temperature Precipitation Wind Pressure Humidity
    00:00 +14°C° 0 mm 4 mps 757 mmHg 96%
    01:00 +14°C° 0 mm 4 mps 757 mmHg 96%
    02:00 +14°C° 0 mm 3 mps 757 mmHg 96%
    03:00 +15°C° 0 mm 2 mps 758 mmHg 97%
    04:00 +15°C° 0 mm 2 mps 758 mmHg 95%
    05:00 +15°C° 0 mm 2 mps 759 mmHg 93%
    06:00 +16°C° 0 mm 2 mps 759 mmHg 92%
    07:00 +17°C° 0 mm 2 mps 760 mmHg 86%
    08:00 +18°C° 0 mm 2 mps 760 mmHg 81%
    09:00 +20°C° 0 mm 2 mps 761 mmHg 75%
    10:00 +21°C° 0 mm 2 mps 761 mmHg 71%
    11:00 +23°C° 0 mm 2 mps 761 mmHg 67%
    12:00 +24°C° 0 mm 2 mps 761 mmHg 63%
    13:00 +24°C° 0 mm 2 mps 761 mmHg 63%
    14:00 +24°C° 0 mm 2 mps 761 mmHg 63%
    15:00 +24°C° 0 mm 2 mps 761 mmHg 63%
    16:00 +24°C° 0 mm 2 mps 761 mmHg 66%
    17:00 +24°C° 0 mm 2 mps 761 mmHg 68%
    18:00 +23°C° 0 mm 2 mps 761 mmHg 71%
    19:00 +21°C° 0 mm 2 mps 762 mmHg 77%
    20:00 +19°C° 0 mm 2 mps 762 mmHg 82%
    21:00 +17°C° 0 mm 3 mps 762 mmHg 87%
    22:00 +17°C° 0 mm 2 mps 762 mmHg 88%
    23:00 +16°C° 0 mm 2 mps 762 mmHg 89%

    22 July, Monday

    Time Temperature Precipitation Wind Pressure Humidity
    00:00 +15°C° 0 mm 1 mps 762 mmHg 90%
    01:00 +15°C° 0 mm 1 mps 762 mmHg 90%
    02:00 +14°C° 0 mm 1 mps 762 mmHg 89%
    03:00 +14°C° 0 mm 1 mps 761 mmHg 89%
    04:00 +14°C° 0 mm 1 mps 761 mmHg 87%
    05:00 +15°C° 0 mm 1 mps 761 mmHg 85%
    06:00 +15°C° 0 mm 1 mps 761 mmHg 83%
    07:00 +17°C° 0 mm 2 mps 762 mmHg 77%
    08:00 +19°C° 0 mm 2 mps 762 mmHg 70%
    09:00 +21°C° 0 mm 2 mps 762 mmHg 64%
    10:00 +23°C° 0 mm 2 mps 762 mmHg 62%
    11:00 +24°C° 0 mm 2 mps 762 mmHg 60%
    12:00 +25°C° 0 mm 3 mps 762 mmHg 57%
    13:00 +26°C° 0 mm 3 mps 762 mmHg 56%
    14:00 +26°C° 0 mm 3 mps 762 mmHg 55%
    15:00 +27°C° 0 mm 3 mps 762 mmHg 54%
    16:00 +26°C° 0 mm 2 mps 761 mmHg 58%
    17:00 +26°C° 0 mm 2 mps 761 mmHg 62%
    18:00 +25°C° 0 mm 2 mps 761 mmHg 65%
    19:00 +23°C° 0 mm 2 mps 761 mmHg 70%
    20:00 +21°C° 0 mm 1 mps 761 mmHg 76%
    21:00 +20°C° 0 mm 1 mps 761 mmHg 81%
    22:00 +19°C° 0 mm 1 mps 761 mmHg 81%
    23:00 +18°C° 0 mm 1 mps 761 mmHg 81%

    23 July, Tuesday

    Time Temperature Precipitation Wind Pressure Humidity
    00:00 +18°C° 0 mm 1 mps 761 mmHg 81%
    01:00 +16°C° 0 mm 1 mps 761 mmHg 79%
    02:00 +16°C° 0 mm 1 mps 760 mmHg 78%
    03:00 +16°C° 0 mm 1 mps 760 mmHg 76%
    04:00 +18°C° 0 mm 1 mps 760 mmHg 75%
    05:00 +18°C° 0 mm 1 mps 760 mmHg 73%
    06:00 +19°C° 0 mm 1 mps 760 mmHg 72%
    07:00 +20°C° 0 mm 2 mps 760 mmHg 70%
    08:00 +22°C° 0 mm 3 mps 760 mmHg 67%
    09:00 +25°C° 0 mm 3 mps 759 mmHg 65%
    10:00 +27°C° 0 mm 4 mps 759 mmHg 61%
    11:00 +28°C° 0 mm 4 mps 759 mmHg 57%
    12:00 +30°C° 0 mm 4 mps 759 mmHg 53%
    13:00 +30°C° 0 mm 4 mps 759 mmHg 52%
    14:00 +30°C° 0 mm 4 mps 758 mmHg 51%
    15:00 +32°C° 0 mm 4 mps 758 mmHg 51%
    16:00 +30°C° 0 mm 4 mps 758 mmHg 54%
    17:00 +29°C° 0 mm 4 mps 757 mmHg 57%
    18:00 +28°C° 0 mm 3 mps 757 mmHg 60%
    19:00 +27°C° 0 mm 3 mps 757 mmHg 62%
    20:00 +25°C° 0 mm 4 mps 757 mmHg 63%
    21:00 +23°C° 0 mm 4 mps 757 mmHg 64%
    22:00 +22°C° 0 mm 3 mps 757 mmHg 67%
    23:00 +22°C° 0 mm 3 mps 757 mmHg 70%
    Show more